FW1937 Weather Reports


time (UTC)temp
C
wind
direction
speed
KPH
gust
KPH
rain 1hr
cm
rain 24hr
cm
rain mn
cm
humidity
%
barometer
mb
20260506155713 15 300 6.4 12.9 0.00 0.61 0.61 65 1008.2
20260506155213 15 261 6.4 12.9 0.00 0.61 0.61 64 1008.2
20260506154714 15 258 6.4 17.7 0.00 0.61 0.61 65 1008.3
20260506154214 15 303 6.4 17.7 0.00 0.61 0.61 65 1008.3
20260506153713 15 227 6.4 14.5 0.00 0.64 0.61 65 1008.3
20260506153213 15 321 4.8 14.5 0.00 0.69 0.61 66 1008.3
20260506152713 15 259 4.8 12.9 0.00 0.69 0.61 67 1008.3
20260506152213 15 277 4.8 12.9 0.00 0.69 0.61 67 1008.4
20260506151713 15 252 4.8 11.3 0.00 0.69 0.61 67 1008.4
20260506151214 15 258 3.2 14.5 0.00 0.69 0.61 67 1008.4
20260506150713 15 286 4.8 14.5 0.00 0.69 0.61 67 1008.4
20260506150209 14 271 6.4 12.9 0.00 0.69 0.61 67 1008.5
20260506145709 14 300 4.8 14.5 0.00 0.69 0.61 67 1008.5
20260506145436 14 282 6.4 14.5 0.00 0.69 0.61 66 1008.5
20260506144709 14 284 4.8 12.9 0.00 0.69 0.61 66 1008.5
20260506144428 14 309 3.2 12.9 0.00 0.69 0.61 67 1008.5
20260506143709 14 266 3.2 12.9 0.00 0.69 0.61 67 1008.6
20260506143436 14 312 3.2 8.0 0.00 0.71 0.61 68 1008.6
20260506142709 14 241 3.2 6.4 0.00 0.71 0.61 68 1008.7
20260506141709 14 269 3.2 11.3 0.00 0.71 0.61 68 1008.7
20260506141210 13 292 4.8 11.3 0.00 0.71 0.61 68 1008.8
20260506140934 13 227 4.8 11.3 0.03 0.71 0.61 68 1008.7
20260506140210 13 259 4.8 14.5 0.03 0.74 0.61 68 1008.8
20260506135709 13 271 6.4 14.5 0.05 0.76 0.61 68 1008.9
20260506135210 13 242 8.0 17.7 0.05 0.81 0.61 68 1008.9
20260506134709 13 268 6.4 17.7 0.05 0.86 0.61 68 1008.8
20260506134209 13 250 6.4 17.7 0.05 0.86 0.61 68 1008.9
20260506133709 13 279 8.0 17.7 0.05 0.89 0.61 68 1008.9
20260506133209 13 254 8.0 17.7 0.05 0.89 0.61 68 1008.9
20260506132710 13 236 9.7 20.9 0.05 0.89 0.61 69 1008.8
20260506132209 13 304 9.7 20.9 0.05 0.89 0.61 69 1008.8
20260506131709 13 292 9.7 17.7 0.08 0.91 0.61 69 1008.9
20260506131209 13 271 9.7 25.7 0.10 0.91 0.61 69 1008.8
20260506130709 13 267 9.7 25.7 0.10 0.91 0.58 69 1008.7
20260506130209 13 292 9.7 25.7 0.10 0.97 0.58 69 1008.7
20260506125929 13 265 9.7 25.7 0.08 0.97 0.56 69 1008.7
20260506125210 13 262 12.9 25.7 0.08 0.99 0.56 70 1008.6
20260506124709 13 201 12.9 25.7 0.08 0.99 0.56 70 1008.6
20260506124209 13 260 9.7 22.5 0.08 0.99 0.56 70 1008.7
20260506123710 13 287 8.0 20.9 0.08 1.02 0.56 70 1008.6
20260506123210 13 256 8.0 19.3 0.05 1.02 0.53 70 1008.6
20260506122709 13 271 11.3 22.5 0.05 1.02 0.53 70 1008.5
20260506122209 13 290 11.3 22.5 0.05 1.04 0.53 69 1008.5
20260506121210 13 236 11.3 24.1 0.03 1.07 0.51 68 1008.6
20260506120709 13 247 12.9 24.1 0.00 1.04 0.48 68 1008.5
20260506120210 13 265 12.9 25.7 0.00 1.04 0.48 68 1008.6
20260506115709 13 241 11.3 25.7 0.00 1.04 0.48 67 1008.5
20260506115210 13 264 9.7 19.3 0.00 1.04 0.48 67 1008.6
20260506114709 14 234 8.0 17.7 0.00 1.04 0.48 67 1008.4
20260506114209 13 280 9.7 20.9 0.00 1.04 0.48 68 1008.5
20260506113709 13 264 9.7 20.9 0.00 1.04 0.48 67 1008.4
20260506113209 13 248 9.7 24.1 0.00 1.04 0.48 67 1008.5
20260506112709 14 350 11.3 25.7 0.00 1.04 0.48 67 1008.6
20260506112426 14 250 11.3 25.7 0.00 1.04 0.48 66 1008.5
20260506111659 14 229 9.7 32.2 0.00 1.04 0.48 66 1008.4
20260506111159 14 267 11.3 32.2 0.00 1.04 0.48 66 1008.4
20260506110659 14 200 9.7 20.9 0.00 1.04 0.48 65 1008.2
20260506110200 14 271 8.0 20.9 0.00 1.04 0.48 65 1008.1
20260506105700 14 250 8.0 20.9 0.00 1.04 0.48 65 1008.2
20260506105200 14 239 9.7 22.5 0.00 1.04 0.48 65 1008.1
20260506104659 14 267 11.3 22.5 0.00 1.04 0.48 65 1008.1
20260506104159 14 238 9.7 20.9 0.00 1.04 0.48 65 1008.0
20260506103659 14 264 8.0 19.3 0.00 1.04 0.48 66 1008.0
20260506103159 14 290 8.0 19.3 0.00 1.04 0.48 66 1008.0
20260506102659 14 230 6.4 17.7 0.00 1.04 0.48 66 1008.1
20260506102200 14 252 4.8 14.5 0.00 1.04 0.48 67 1008.1
20260506101659 13 173 4.8 12.9 0.00 1.04 0.48 67 1008.1
20260506101159 13 263 6.4 12.9 0.00 1.04 0.48 67 1008.2
20260506100700 13 194 8.0 17.7 0.03 1.04 0.48 67 1008.1
20260506100212 13 192 8.0 17.7 0.03 1.04 0.48 67 1008.2
20260506095700 13 155 9.7 20.9 0.05 1.04 0.48 67 1008.1
20260506095200 13 214 9.7 20.9 0.05 1.04 0.48 67 1008.0
20260506094916 13 208 9.7 17.7 0.05 1.04 0.48 67 1008.1
20260506094151 12 219 9.7 16.1 0.05 1.04 0.48 67 1008.2
20260506093643 12 174 9.7 16.1 0.05 1.04 0.48 67 1008.2
20260506093143 12 246 9.7 16.1 0.05 1.04 0.48 67 1008.2
20260506092407 12 214 6.4 12.9 0.05 1.04 0.48 67 1008.1
20260506091143 12 228 8.0 16.1 0.05 1.04 0.48 67 1008.1
20260506090643 12 183 6.4 20.9 0.05 1.02 0.46 67 1008.0
20260506090144 12 220 4.8 20.9 0.05 0.99 0.43 67 1008.0
20260506085643 12 188 4.8 11.3 0.08 0.99 0.43 67 1008.0
20260506085143 12 192 4.8 11.3 0.10 0.99 0.43 67 1007.9
20260506084643 12 227 6.4 11.3 0.10 0.99 0.43 67 1007.8
20260506084143 12 219 6.4 11.3 0.10 0.99 0.43 68 1007.8
20260506083643 12 235 6.4 14.5 0.10 0.99 0.43 68 1007.8
20260506083143 12 194 6.4 14.5 0.08 0.99 0.43 67 1007.8
20260506082643 12 196 6.4 19.3 0.08 0.99 0.43 68 1007.8
20260506081643 12 259 4.8 16.1 0.08 0.99 0.43 68 1007.8
20260506081143 12 224 4.8 11.3 0.08 0.99 0.43 68 1007.8
20260506080904 12 215 3.2 11.3 0.08 0.99 0.43 68 1007.7
20260506080146 12 221 4.8 11.3 0.05 0.99 0.41 68 1007.7
20260506073143 11 175 4.8 8.0 0.00 0.99 0.33 68 1007.5
20260506072644 11 192 3.2 8.0 0.00 0.99 0.33 68 1007.4
20260506071643 11 175 4.8 6.4 0.00 0.99 0.33 68 1007.5
20260506071407 11 173 4.8 8.0 0.00 1.02 0.33 68 1007.4
20260506070644 11 169 6.4 8.0 0.00 1.02 0.33 68 1007.3
20260506070143 11 168 6.4 9.7 0.00 1.07 0.33 68 1007.3
20260506061643 11 185 4.8 8.0 0.03 1.32 0.33 68 1007.1
20260506060641 10 182 3.2 8.0 0.05 1.40 0.33 68 1007.2
20260506060140 10 181 4.8 8.0 0.05 1.40 0.33 68 1007.2
20260506051137 10 198 4.8 11.3 0.30 1.37 0.33 68 1006.9
20260506050637 10 209 4.8 11.3 0.30 1.37 0.30 68 1006.9
20260506050131 10 215 8.0 11.3 0.30 1.37 0.30 68 1006.8
20260506045130 10 213 8.0 11.3 0.23 1.27 0.23 68 1006.8
20260506044631 10 210 8.0 16.1 0.20 1.27 0.20 68 1006.8
20260506044342 10 218 8.0 16.1 0.15 1.22 0.18 68 1006.7
20260506043620 10 201 8.0 14.5 0.13 1.17 0.13 68 1006.8
20260506043120 10 205 6.4 12.9 0.08 1.14 0.08 68 1006.9
20260506042837 10 200 6.4 12.9 0.05 1.09 0.05 68 1006.9
20260506042120 10 220 4.8 8.0 0.03 1.09 0.03 68 1006.8
20260506041846 10 200 3.2 6.4 0.00 1.07 0.00 68 1006.9
20260506041401 10 192 3.2 6.4 0.00 1.09 0.00 68 1006.8
20260506040622 10 190 3.2 4.8 0.00 1.09 0.00 68 1006.9
20260506040115 10 185 1.6 4.8 0.00 1.09 0.00 68 1006.9
20260506035612 10 182 1.6 3.2 0.00 1.09 0.00 68 1006.8
20260506035107 10 182 0.0 3.2 0.00 1.09 0.00 68 1006.8
20260506034605 10 182 0.0 0.0 0.00 1.09 0.00 68 1006.9
20260506034105 10 182 0.0 0.0 0.00 1.09 0.00 68 1006.9
20260506033834 10 182 0.0 3.2 0.00 1.09 0.00 68 1007.0
20260506033105 10 182 1.6 3.2 0.00 1.09 0.00 68 1006.9
20260506032605 10 182 1.6 4.8 0.00 1.09 0.00 68 1006.9
20260506032105 10 182 1.6 4.8 0.00 1.09 0.00 68 1006.9
20260506031828 10 182 1.6 3.2 0.00 1.09 0.00 68 1006.9
20260506031105 10 182 1.6 3.2 0.00 1.09 0.00 68 1006.9
20260506030606 10 182 1.6 6.4 0.00 1.09 0.00 68 1006.9
20260506030119 10 182 1.6 6.4 0.00 1.09 0.00 68 1006.8
20260506025605 10 182 3.2 6.4 0.00 1.09 0.00 68 1006.8
20260506024106 10 181 3.2 6.4 0.00 1.09 0.00 68 1006.8
20260506023606 10 188 3.2 6.4 0.00 1.09 0.00 68 1006.9
20260506023105 10 203 4.8 6.4 0.00 1.09 0.00 68 1006.9
20260506022605 9 202 4.8 6.4 0.00 1.09 0.00 68 1006.9
20260506022105 9 211 4.8 6.4 0.00 1.09 0.00 68 1007.0
20260506021605 9 187 3.2 6.4 0.00 1.09 0.00 68 1006.9
20260506021105 9 180 3.2 6.4 0.00 1.09 0.00 68 1007.0
20260506020605 9 178 1.6 6.4 0.00 1.09 0.00 68 1007.0
20260506020108 9 178 1.6 4.8 0.00 1.09 0.00 68 1007.0
20260506015606 10 178 3.2 4.8 0.00 1.09 0.00 68 1007.0
20260506015105 10 178 1.6 4.8 0.00 1.09 0.00 68 1007.0
20260506014833 10 177 1.6 4.8 0.00 1.09 0.00 68 1007.1
20260506014105 10 177 1.6 4.8 0.00 1.09 0.00 68 1007.0
20260506013605 10 190 1.6 6.4 0.00 1.09 0.00 68 1007.1
20260506013328 10 190 1.6 6.4 0.00 1.09 0.00 68 1007.2
20260506012605 10 190 3.2 9.7 0.00 1.09 0.00 68 1007.1
20260506012105 10 189 4.8 9.7 0.00 1.09 0.00 68 1007.2
20260506011605 10 189 4.8 9.7 0.00 1.09 0.00 68 1007.2
20260506011105 10 188 4.8 9.7 0.00 1.09 0.00 68 1007.2
20260506010606 9 205 1.6 8.0 0.00 1.09 0.00 69 1007.2
20260506010107 9 238 0.0 0.0 0.00 1.09 0.00 69 1007.3
20260506005606 9 211 0.0 0.0 0.00 1.09 0.00 69 1007.3
20260506005106 9 220 0.0 0.0 0.00 1.09 0.00 69 1007.5
20260506004834 9 212 0.0 0.0 0.00 1.09 0.00 69 1007.5
20260506004326 9 212 0.0 0.0 0.00 1.09 0.00 69 1007.5
20260506003606 9 212 0.0 0.0 0.00 1.09 0.00 69 1007.6
20260506003325 9 213 0.0 0.0 0.00 1.09 0.00 69 1007.7
20260506002605 9 212 0.0 0.0 0.00 1.09 0.00 69 1007.7
20260506002105 9 225 0.0 0.0 0.00 1.12 0.00 69 1007.7
20260506001605 9 225 0.0 3.2 0.00 1.12 0.00 69 1007.8
20260506001105 9 229 0.0 3.2 0.00 1.12 0.00 69 1007.7
20260506000605 9 188 1.6 4.8 0.00 1.12 0.00 69 1007.7
20260506000118 9 188 1.6 4.8 0.00 1.12 0.00 69 1007.6
20260505235606 9 188 1.6 4.8 0.00 1.12 0.00 68 1007.7
20260505235105 9 188 1.6 4.8 0.00 1.12 0.00 68 1007.7
20260505234828 10 187 1.6 4.8 0.00 1.12 0.00 68 1007.9
20260505234105 10 187 1.6 4.8 0.00 1.12 0.00 68 1007.9
20260505233605 10 187 1.6 4.8 0.00 1.12 0.00 68 1007.9
20260505233106 10 187 1.6 3.2 0.00 1.12 0.00 68 1007.9
20260505232605 10 187 1.6 4.8 0.00 1.12 0.00 68 1007.8
20260505232105 10 187 1.6 4.8 0.00 1.12 0.00 68 1007.8
20260505231605 10 188 1.6 4.8 0.00 1.12 0.00 68 1007.9
20260505230605 10 188 3.2 4.8 0.00 1.14 0.00 68 1007.8
20260505230107 10 188 3.2 4.8 0.00 1.14 0.00 68 1007.7
20260505225601 10 190 3.2 4.8 0.00 1.17 0.00 68 1007.8
20260505225320 10 190 3.2 6.4 0.00 1.17 0.00 68 1007.8
20260505224601 10 189 3.2 6.4 0.00 1.17 0.00 68 1007.8
20260505224101 10 192 4.8 6.4 0.00 1.17 0.00 68 1007.9
20260505223601 10 192 4.8 6.4 0.00 1.17 0.00 68 1007.9
20260505223102 10 199 4.8 8.0 0.00 1.17 0.00 68 1007.9
20260505222601 10 191 4.8 8.0 0.00 1.19 0.00 69 1007.9
20260505222102 10 202 4.8 9.7 0.00 1.22 0.00 69 1007.9
20260505221601 10 198 4.8 9.7 0.00 1.24 0.00 69 1008.1
20260505221101 10 215 4.8 8.0 0.00 1.24 0.00 69 1008.1
20260505220601 10 225 3.2 8.0 0.00 1.24 0.00 69 1008.1
20260505215600 10 192 3.2 6.4 0.00 1.24 1.24 69 1008.2
20260505215326 10 190 3.2 6.4 0.00 1.24 1.24 69 1008.1
20260505214600 10 190 3.2 8.0 0.00 1.24 1.24 69 1008.1
20260505214101 10 190 4.8 8.0 0.00 1.24 1.24 69 1008.1
20260505213823 10 213 4.8 8.0 0.00 1.24 1.24 69 1008.2
20260505213100 10 201 3.2 8.0 0.00 1.24 1.24 69 1008.2
20260505212601 10 211 3.2 4.8 0.00 1.24 1.24 69 1008.3
20260505212101 10 210 1.6 4.8 0.00 1.24 1.24 69 1008.3
20260505211600 10 206 1.6 3.2 0.00 1.24 1.24 69 1008.3
20260505211101 10 206 1.6 4.8 0.00 1.24 1.24 69 1008.3
20260505210600 10 206 1.6 4.8 0.00 1.24 1.24 69 1008.3
20260505210111 11 206 1.6 4.8 0.00 1.24 1.24 70 1008.3
20260505205555 11 207 1.6 4.8 0.00 1.24 1.24 69 1008.2
20260505205051 11 207 3.2 4.8 0.00 1.24 1.24 69 1008.3
20260505204815 11 207 3.2 6.4 0.00 1.24 1.24 69 1008.3
20260505204051 11 208 3.2 6.4 0.00 1.24 1.24 69 1008.2
20260505203553 11 212 3.2 6.4 0.00 1.24 1.24 69 1008.1
20260505203052 11 221 4.8 6.4 0.00 1.24 1.24 69 1008.1
20260505202546 11 218 4.8 9.7 0.00 1.24 1.24 69 1008.2
20260505202045 11 211 4.8 9.7 0.00 1.27 1.24 69 1008.2
20260505201537 11 207 4.8 9.7 0.00 1.27 1.24 69 1008.1
20260505201038 11 222 4.8 9.7 0.00 1.27 1.24 69 1008.0
20260505200537 11 229 6.4 9.7 0.00 1.27 1.24 69 1008.1
20260505200037 11 233 6.4 12.9 0.00 1.27 1.24 69 1008.0
20260505195537 11 227 8.0 12.9 0.00 1.27 1.24 68 1008.0
20260505195252 11 215 8.0 17.7 0.00 1.27 1.24 68 1008.0
20260505194030 12 229 8.0 19.3 0.00 1.27 1.24 68 1007.9
20260505193752 12 273 9.7 19.3 0.00 1.27 1.24 68 1007.9
20260505193030 12 208 9.7 17.7 0.00 1.27 1.24 68 1007.9
20260505192527 12 225 8.0 17.7 0.00 1.27 1.24 68 1007.8
20260505192256 12 219 8.0 17.7 0.00 1.27 1.24 68 1007.9
20260505191527 12 229 8.0 20.9 0.00 1.27 1.24 68 1007.9
20260505191031 12 250 6.4 20.9 0.00 1.27 1.24 69 1007.8
20260505190527 12 269 4.8 17.7 0.00 1.27 1.24 69 1007.7
20260505190030 12 228 3.2 8.0 0.00 1.27 1.24 69 1007.7
20260505185527 12 193 3.2 8.0 0.00 1.27 1.24 69 1007.7
20260505185031 12 259 3.2 8.0 0.00 1.27 1.24 68 1007.7
20260505184523 13 240 1.6 9.7 0.00 1.27 1.24 69 1007.7
20260505184021 13 289 1.6 9.7 0.00 1.27 1.24 69 1007.6
20260505183517 13 222 3.2 11.3 0.00 1.27 1.24 69 1007.5
20260505183017 13 217 4.8 11.3 0.00 1.27 1.24 68 1007.5
20260505182517 13 217 4.8 9.7 0.00 1.27 1.24 68 1007.5
20260505182019 13 204 4.8 9.7 0.00 1.27 1.24 68 1007.4
20260505181509 13 211 4.8 9.7 0.00 1.27 1.24 68 1007.4
20260505181235 13 178 4.8 9.7 0.00 1.27 1.24 68 1007.5
20260505180509 13 209 3.2 6.4 0.00 1.27 1.24 68 1007.4
20260505180011 13 196 3.2 11.3 0.00 1.27 1.24 68 1007.5
20260505175504 13 223 4.8 11.3 0.00 1.27 1.24 68 1007.4
20260505175228 13 229 6.4 16.1 0.00 1.27 1.24 67 1007.5
20260505174454 13 296 6.4 14.5 0.00 1.27 1.24 67 1007.5
20260505173954 13 213 6.4 11.3 0.00 1.27 1.24 67 1007.6
20260505173456 13 192 4.8 11.3 0.00 1.27 1.24 67 1007.5
20260505172951 13 183 6.4 14.5 0.00 1.27 1.24 67 1007.5
20260505172452 13 200 6.4 14.5 0.00 1.27 1.24 67 1007.6
20260505172200 13 223 4.8 12.9 0.00 1.27 1.24 67 1007.5
20260505171435 13 223 4.8 9.7 0.00 1.27 1.24 67 1007.6
20260505171151 13 207 4.8 16.1 0.00 1.27 1.24 67 1007.6
20260505170421 13 221 6.4 16.1 0.00 1.27 1.24 67 1007.6
20260505165922 13 261 6.4 16.1 0.00 1.27 1.24 67 1007.6
20260505165421 13 252 6.4 16.1 0.00 1.27 1.24 67 1007.7
20260505164920 13 290 8.0 16.1 0.00 1.27 1.24 67 1007.7
20260505164415 13 240 6.4 16.1 0.03 1.27 1.24 67 1007.7
20260505163912 13 199 6.4 12.9 0.05 1.27 1.24 68 1007.6
20260505163413 13 207 6.4 12.9 0.05 1.27 1.24 68 1007.7
20260505162910 13 248 4.8 9.7 0.08 1.27 1.24 68 1007.7
20260505162631 13 195 4.8 8.0 0.08 1.27 1.24 68 1007.7
20260505162131 13 230 3.2 8.0 0.08 1.27 1.24 68 1007.7
20260505161409 13 211 3.2 8.0 0.08 1.27 1.24 68 1007.7
20260505161130 13 175 4.8 8.0 0.08 1.27 1.24 68 1007.7
20260505160408 13 184 3.2 8.0 0.08 1.27 1.24 68 1007.7